Location: Aressy
(43.2833°N, 0.3167°W)
Time: 18:36:19
(UTC+00:00)

Cosmos 2298 Rocket - Pass Details

Date: 28 January 2021
Orbit: 775 x 784 km, 74.0° (Epoch: 02 March)

Event Time Altitude Azimuth Distance (km) Brightness Sun altitude
Rises 19:03:07 0° 196° (SSW) 3,247 7.5 -21.0°
Reaches altitude 10° 19:05:29 10° 196° (SSW) 2,325 6.7 -21.4°
Maximum altitude 19:10:47 84° 109° (ESE) 791 3.9 -22.4°
Enters shadow 19:13:34 29° 23° (NNE) 1,401 5.1 -22.9°
